Time,TemperatureF,DewpointF,PressureIn,WindDirection,WindDirectionDegrees,WindSpeedMPH,WindSpeedGustMPH,Humidity,HourlyPrecipIn,Conditions,Clouds,dailyrainin,SoftwareType,DateUTC
2013-05-29 00:01:00,54.3,49.6,30.03,SSE,160,2.7,12.8,84,0.15,,,0.64,WUHU21623XXSP,2013-05-29 04:01:00,
2013-05-29 00:06:00,54.1,49.4,30.02,SSE,167,5.5,9.2,84,0.07,,,0.00,WUHU21623XXSP,2013-05-29 04:06:00,
2013-05-29 00:11:00,54.1,49.4,30.01,SSE,156,4.7,10.3,84,0.02,,,0.00,WUHU21623XXSP,2013-05-29 04:11:00,
2013-05-29 00:16:00,54.1,49.4,30.01,SSE,157,9.6,11.0,84,0.00,,,0.00,WUHU21623XXSP,2013-05-29 04:16:00,
2013-05-29 00:21:00,54.1,49.4,30.02,SSE,157,5.1,11.0,84,0.00,,,0.00,WUHU21623XXSP,2013-05-29 04:21:00,
2013-05-29 00:26:00,54.3,49.6,30.03,SE,135,4.9,10.7,84,0.00,,,0.00,WUHU21623XXSP,2013-05-29 04:26:00,
2013-05-29 00:31:00,54.5,49.8,30.04,SSE,166,2.3,8.7,84,0.00,,,0.00,WUHU21623XXSP,2013-05-29 04:31:00,
2013-05-29 00:36:00,54.5,50.1,30.04,South,178,2.5,8.1,85,0.00,,,0.00,WUHU21623XXSP,2013-05-29 04:36:00,
2013-05-29 00:41:00,54.5,50.1,30.03,SSE,159,2.1,5.4,85,0.00,,,0.00,WUHU21623XXSP,2013-05-29 04:41:00,
2013-05-29 00:46:00,54.8,50.1,30.02,SE,143,2.9,6.9,84,0.00,,,0.00,WUHU21623XXSP,2013-05-29 04:46:00,
2013-05-29 00:51:00,54.8,50.4,30.02,SSE,157,2.5,6.9,85,0.02,,,0.02,WUHU21623XXSP,2013-05-29 04:51:00,
2013-05-29 00:56:00,54.8,50.4,30.02,South,180,6.9,9.2,85,0.02,,,0.02,WUHU21623XXSP,2013-05-29 04:56:00,
2013-05-29 01:01:00,55.0,50.6,30.02,SSE,157,0.7,9.2,85,0.02,,,0.02,WUHU21623XXSP,2013-05-29 05:01:00,
2013-05-29 01:06:00,55.0,50.6,30.02,South,180,3.6,8.9,85,0.02,,,0.02,WUHU21623XXSP,2013-05-29 05:06:00,
2013-05-29 01:11:00,55.4,51.0,30.02,SSE,152,2.5,9.2,85,0.02,,,0.02,WUHU21623XXSP,2013-05-29 05:11:00,
2013-05-29 01:16:00,55.6,51.2,30.01,SSW,202,4.0,9.2,85,0.02,,,0.02,WUHU21623XXSP,2013-05-29 05:16:00,
2013-05-29 01:21:00,55.7,51.3,30.01,SSE,156,3.0,8.5,85,0.02,,,0.02,WUHU21623XXSP,2013-05-29 05:21:00,
2013-05-29 01:26:00,55.9,51.5,30.01,South,180,0.2,8.5,85,0.02,,,0.02,WUHU21623XXSP,2013-05-29 05:26:00,
2013-05-29 01:31:00,55.9,51.5,30.01,SSE,159,1.5,6.9,85,0.02,,,0.02,WUHU21623XXSP,2013-05-29 05:31:00,
2013-05-29 01:36:00,56.1,51.7,30.01,South,169,3.3,6.9,85,0.02,,,0.02,WUHU21623XXSP,2013-05-29 05:36:00,
2013-05-29 01:41:00,56.3,51.8,30.01,SW,225,4.0,7.2,85,0.02,,,0.02,WUHU21623XXSP,2013-05-29 05:41:00,
2013-05-29 01:46:00,56.5,52.0,30.01,South,189,2.3,7.2,85,0.02,,,0.02,WUHU21623XXSP,2013-05-29 05:46:00,
2013-05-29 01:51:00,56.6,52.1,30.01,SW,221,2.5,5.4,85,0.00,,,0.02,WUHU21623XXSP,2013-05-29 05:51:00,
2013-05-29 01:56:00,56.8,52.3,30.01,SW,221,2.0,5.4,85,0.00,,,0.02,WUHU21623XXSP,2013-05-29 05:56:00,
2013-05-29 02:01:00,57.0,52.5,30.00,WSW,247,0.0,4.5,85,0.00,,,0.02,WUHU21623XXSP,2013-05-29 06:01:00,
2013-05-29 02:06:00,57.2,53.0,30.00,SW,225,1.5,4.5,86,0.00,,,0.02,WUHU21623XXSP,2013-05-29 06:06:00,
2013-05-29 02:11:00,57.4,52.9,30.00,South,180,4.0,11.2,85,0.00,,,0.02,WUHU21623XXSP,2013-05-29 06:11:00,
2013-05-29 02:16:00,57.4,52.9,29.99,SSW,202,2.9,11.2,85,0.00,,,0.02,WUHU21623XXSP,2013-05-29 06:16:00,
2013-05-29 02:21:00,57.5,53.0,30.00,SSE,157,4.5,6.7,85,0.00,,,0.02,WUHU21623XXSP,2013-05-29 06:21:00,
2013-05-29 02:26:00,57.7,53.2,29.99,South,175,2.5,7.2,85,0.00,,,0.02,WUHU21623XXSP,2013-05-29 06:26:00,
2013-05-29 02:31:00,57.9,53.4,29.99,South,177,3.7,9.4,85,0.00,,,0.02,WUHU21623XXSP,2013-05-29 06:31:00,
2013-05-29 02:36:00,58.1,53.6,29.99,WSW,247,6.3,9.4,85,0.00,,,0.02,WUHU21623XXSP,2013-05-29 06:36:00,
2013-05-29 02:41:00,58.4,53.9,29.99,SSW,202,3.4,9.4,85,0.00,,,0.02,WUHU21623XXSP,2013-05-29 06:41:00,
2013-05-29 02:46:00,58.6,54.1,29.99,South,178,3.7,7.6,85,0.00,,,0.02,WUHU21623XXSP,2013-05-29 06:46:00,
2013-05-29 02:51:00,58.8,54.3,29.99,South,188,3.7,10.7,85,0.00,,,0.02,WUHU21623XXSP,2013-05-29 06:51:00,
2013-05-29 02:56:00,59.0,54.5,29.99,SSW,201,3.4,10.7,85,0.00,,,0.02,WUHU21623XXSP,2013-05-29 06:56:00,
2013-05-29 03:01:00,59.2,54.7,29.99,WSW,247,5.1,8.7,85,0.00,,,0.02,WUHU21623XXSP,2013-05-29 07:01:00,
2013-05-29 03:06:00,59.2,54.7,30.01,SW,215,4.6,8.7,85,0.00,,,0.02,WUHU21623XXSP,2013-05-29 07:06:00,
2013-05-29 03:11:00,59.3,54.5,30.01,SSW,202,3.6,7.8,84,0.00,,,0.02,WUHU21623XXSP,2013-05-29 07:11:00,
2013-05-29 03:16:00,59.3,54.5,30.01,South,189,2.2,5.6,84,0.00,,,0.02,WUHU21623XXSP,2013-05-29 07:16:00,
2013-05-29 03:21:00,59.2,54.4,30.01,South,175,1.9,5.6,84,0.00,,,0.02,WUHU21623XXSP,2013-05-29 07:21:00,
2013-05-29 03:26:00,59.0,54.2,30.00,SSE,154,3.4,7.4,84,0.00,,,0.02,WUHU21623XXSP,2013-05-29 07:26:00,
2013-05-29 03:31:00,59.0,54.2,30.01,SSW,200,1.2,7.4,84,0.00,,,0.02,WUHU21623XXSP,2013-05-29 07:31:00,
2013-05-29 03:36:00,59.0,54.2,30.00,South,182,3.2,6.9,84,0.00,,,0.02,WUHU21623XXSP,2013-05-29 07:36:00,
2013-05-29 03:41:00,59.0,54.2,30.00,SSW,202,2.5,6.9,84,0.00,,,0.02,WUHU21623XXSP,2013-05-29 07:41:00,
2013-05-29 03:46:00,59.0,54.2,30.00,South,182,3.7,7.2,84,0.00,,,0.02,WUHU21623XXSP,2013-05-29 07:46:00,
2013-05-29 03:51:00,59.0,54.2,30.00,South,177,4.4,9.6,84,0.00,,,0.02,WUHU21623XXSP,2013-05-29 07:51:00,
2013-05-29 03:56:00,59.0,54.2,30.00,South,183,2.9,9.6,84,0.00,,,0.02,WUHU21623XXSP,2013-05-29 07:56:00,
2013-05-29 04:01:00,59.0,54.2,30.00,SSE,157,0.7,6.0,84,0.00,,,0.02,WUHU21623XXSP,2013-05-29 08:01:00,
2013-05-29 04:06:00,59.2,54.7,30.01,SE,135,3.6,5.1,85,0.00,,,0.02,WUHU21623XXSP,2013-05-29 08:06:00,
2013-05-29 04:11:00,59.2,54.7,30.00,SSW,202,3.1,4.7,85,0.00,,,0.02,WUHU21623XXSP,2013-05-29 08:11:00,
2013-05-29 04:16:00,59.3,54.8,30.01,ESE,112,0.4,4.5,85,0.00,,,0.02,WUHU21623XXSP,2013-05-29 08:16:00,
2013-05-29 04:21:00,59.3,54.8,30.00,South,175,2.2,8.3,85,0.00,,,0.02,WUHU21623XXSP,2013-05-29 08:21:00,
2013-05-29 04:26:00,59.3,54.8,30.00,SSE,157,3.1,8.3,85,0.00,,,0.02,WUHU21623XXSP,2013-05-29 08:26:00,
2013-05-29 04:31:00,59.5,55.0,30.00,SSE,168,1.6,6.0,85,0.00,,,0.02,WUHU21623XXSP,2013-05-29 08:31:00,
2013-05-29 04:36:00,59.5,55.0,30.00,SSW,211,2.8,6.0,85,0.00,,,0.02,WUHU21623XXSP,2013-05-29 08:36:00,
2013-05-29 04:41:00,59.5,55.0,30.00,South,181,2.0,5.8,85,0.00,,,0.02,WUHU21623XXSP,2013-05-29 08:41:00,
2013-05-29 04:46:00,59.5,54.7,30.00,SW,220,1.8,5.8,84,0.00,,,0.02,WUHU21623XXSP,2013-05-29 08:46:00,
2013-05-29 04:51:00,59.5,54.7,30.00,SSE,161,2.2,5.8,84,0.00,,,0.02,WUHU21623XXSP,2013-05-29 08:51:00,
2013-05-29 04:56:00,59.7,54.9,30.00,SSW,205,2.0,5.8,84,0.00,,,0.02,WUHU21623XXSP,2013-05-29 08:56:00,
2013-05-29 05:01:00,59.7,54.9,30.00,SSE,157,2.9,5.8,84,0.00,,,0.02,WUHU21623XXSP,2013-05-29 09:01:00,
2013-05-29 05:06:00,59.9,55.4,30.00,SSE,158,3.5,5.8,85,0.00,,,0.02,WUHU21623XXSP,2013-05-29 09:06:00,
2013-05-29 05:11:00,59.9,55.4,30.00,SSE,157,4.9,5.8,85,0.00,,,0.02,WUHU21623XXSP,2013-05-29 09:11:00,
2013-05-29 05:16:00,59.9,55.4,30.00,SW,225,2.7,6.9,85,0.00,,,0.02,WUHU21623XXSP,2013-05-29 09:16:00,
2013-05-29 05:21:00,59.9,55.1,30.00,SSE,157,1.8,6.9,84,0.00,,,0.02,WUHU21623XXSP,2013-05-29 09:21:00,
2013-05-29 05:26:00,59.9,55.1,30.00,SSE,165,2.1,5.4,84,0.00,,,0.02,WUHU21623XXSP,2013-05-29 09:26:00,
2013-05-29 05:31:00,59.9,55.1,30.00,South,170,3.9,6.0,84,0.00,,,0.02,WUHU21623XXSP,2013-05-29 09:31:00,
2013-05-29 05:36:00,60.1,55.3,30.00,SSE,159,2.5,6.0,84,0.00,,,0.02,WUHU21623XXSP,2013-05-29 09:36:00,
2013-05-29 05:41:00,60.1,55.3,30.00,SSW,196,1.8,4.7,84,0.00,,,0.02,WUHU21623XXSP,2013-05-29 09:41:00,
2013-05-29 05:46:00,60.2,55.4,30.00,SSE,159,2.6,5.1,84,0.00,,,0.02,WUHU21623XXSP,2013-05-29 09:46:00,
2013-05-29 05:51:00,60.4,55.6,30.01,SSW,202,2.5,7.6,84,0.00,,,0.02,WUHU21623XXSP,2013-05-29 09:51:00,
2013-05-29 05:56:00,60.2,55.4,30.01,SW,225,5.8,7.6,84,0.00,,,0.02,WUHU21623XXSP,2013-05-29 09:56:00,
2013-05-29 06:01:00,60.4,55.6,30.01,SSW,202,0.9,5.8,84,0.00,,,0.02,WUHU21623XXSP,2013-05-29 10:01:00,
2013-05-29 06:06:00,60.4,55.6,30.02,SW,218,2.9,6.0,84,0.02,,,0.04,WUHU21623XXSP,2013-05-29 10:06:00,
2013-05-29 06:11:00,60.2,55.4,30.02,WSW,247,0.0,6.0,84,0.04,,,0.06,WUHU21623XXSP,2013-05-29 10:11:00,
2013-05-29 06:16:00,60.2,55.4,30.01,SSW,202,1.3,4.5,84,0.04,,,0.06,WUHU21623XXSP,2013-05-29 10:16:00,
2013-05-29 06:21:00,60.4,55.6,30.01,SE,135,2.6,3.6,84,0.04,,,0.06,WUHU21623XXSP,2013-05-29 10:21:00,
2013-05-29 06:26:00,60.2,55.4,30.00,South,180,3.6,7.8,84,0.04,,,0.06,WUHU21623XXSP,2013-05-29 10:26:00,
2013-05-29 06:31:00,60.4,55.9,30.00,SSE,157,2.2,7.8,85,0.04,,,0.06,WUHU21623XXSP,2013-05-29 10:31:00,
2013-05-29 06:36:00,60.4,55.9,30.01,SSE,157,0.0,3.1,85,0.04,,,0.06,WUHU21623XXSP,2013-05-29 10:36:00,
2013-05-29 06:41:00,60.6,56.1,30.02,South,180,0.0,3.1,85,0.04,,,0.06,WUHU21623XXSP,2013-05-29 10:41:00,
2013-05-29 06:46:00,60.6,56.1,30.02,South,169,2.1,4.7,85,0.04,,,0.06,WUHU21623XXSP,2013-05-29 10:46:00,
2013-05-29 06:51:00,60.4,55.9,30.02,SSE,157,0.0,4.7,85,0.06,,,0.08,WUHU21623XXSP,2013-05-29 10:51:00,
2013-05-29 06:56:00,60.4,55.9,30.03,SSW,202,0.0,2.7,85,0.06,,,0.08,WUHU21623XXSP,2013-05-29 10:56:00,
2013-05-29 07:01:00,60.4,55.9,30.03,SSW,202,0.0,2.7,85,0.04,,,0.08,WUHU21623XXSP,2013-05-29 11:01:00,
2013-05-29 07:06:00,60.6,56.1,30.04,SSW,202,0.0,0.0,85,0.04,,,0.08,WUHU21623XXSP,2013-05-29 11:06:00,
2013-05-29 07:11:00,60.8,56.3,30.04,SSW,202,0.8,0.9,85,0.02,,,0.08,WUHU21623XXSP,2013-05-29 11:11:00,
2013-05-29 07:16:00,61.0,56.5,30.04,SSW,202,1.1,1.1,85,0.02,,,0.08,WUHU21623XXSP,2013-05-29 11:16:00,
2013-05-29 07:21:00,61.0,56.5,30.04,SSE,157,0.0,1.1,85,0.02,,,0.08,WUHU21623XXSP,2013-05-29 11:21:00,
2013-05-29 07:26:00,61.1,56.6,30.04,SSE,157,0.0,0.0,85,0.04,,,0.10,WUHU21623XXSP,2013-05-29 11:26:00,
2013-05-29 07:31:00,61.1,56.6,30.04,SSE,157,0.0,0.0,85,0.04,,,0.10,WUHU21623XXSP,2013-05-29 11:31:00,
2013-05-29 07:36:00,61.3,56.8,30.02,SSE,157,0.0,2.0,85,0.04,,,0.10,WUHU21623XXSP,2013-05-29 11:36:00,
2013-05-29 07:41:00,61.5,57.0,30.02,SSE,157,0.0,2.0,85,0.04,,,0.10,WUHU21623XXSP,2013-05-29 11:41:00,
2013-05-29 07:46:00,62.0,57.4,30.02,SSE,157,0.0,1.1,85,0.04,,,0.10,WUHU21623XXSP,2013-05-29 11:46:00,
2013-05-29 07:51:00,62.4,57.8,30.02,SSE,157,0.0,0.0,85,0.02,,,0.10,WUHU21623XXSP,2013-05-29 11:51:00,
2013-05-29 07:56:00,62.8,58.2,30.02,SSE,157,0.0,0.9,85,0.02,,,0.10,WUHU21623XXSP,2013-05-29 11:56:00,
2013-05-29 08:01:00,62.8,58.2,30.03,SSE,157,0.0,0.9,85,0.02,,,0.10,WUHU21623XXSP,2013-05-29 12:01:00,
2013-05-29 08:06:00,62.8,58.2,30.04,East,90,0.0,0.0,85,0.02,,,0.10,WUHU21623XXSP,2013-05-29 12:06:00,
2013-05-29 08:11:00,62.8,58.2,30.04,SSE,157,0.0,0.0,85,0.02,,,0.10,WUHU21623XXSP,2013-05-29 12:11:00,
2013-05-29 08:16:00,62.8,58.2,30.04,SSW,202,1.8,2.2,85,0.02,,,0.10,WUHU21623XXSP,2013-05-29 12:16:00,
2013-05-29 08:21:00,62.6,58.0,30.05,SSW,202,0.0,2.2,85,0.02,,,0.10,WUHU21623XXSP,2013-05-29 12:21:00,
2013-05-29 08:26:00,62.2,57.6,30.05,SSW,202,0.0,0.0,85,0.04,,,0.14,WUHU21623XXSP,2013-05-29 12:26:00,
2013-05-29 08:31:00,62.0,57.1,30.05,SSW,202,0.0,0.0,84,0.12,,,0.22,WUHU21623XXSP,2013-05-29 12:31:00,
2013-05-29 08:36:00,62.0,57.1,30.05,South,189,3.3,3.8,84,0.16,,,0.26,WUHU21623XXSP,2013-05-29 12:36:00,
2013-05-29 08:41:00,61.7,57.2,30.05,South,180,0.0,3.8,85,0.16,,,0.26,WUHU21623XXSP,2013-05-29 12:41:00,
2013-05-29 08:46:00,61.7,56.8,30.05,South,180,0.0,0.0,84,0.16,,,0.26,WUHU21623XXSP,2013-05-29 12:46:00,
2013-05-29 08:51:00,61.7,57.2,30.05,South,180,0.0,0.0,85,0.20,,,0.30,WUHU21623XXSP,2013-05-29 12:51:00,
2013-05-29 08:55:00,61.5,57.0,30.05,South,180,0.0,0.0,85,0.20,,,0.30,WUHU21623XXSP,2013-05-29 12:55:00,
2013-05-29 09:00:00,61.7,57.2,30.05,South,180,0.0,0.0,85,0.20,,,0.30,WUHU21623XXSP,2013-05-29 13:00:00,
2013-05-29 09:05:00,61.7,57.2,30.05,South,180,0.0,0.9,85,0.20,,,0.30,WUHU21623XXSP,2013-05-29 13:05:00,
2013-05-29 09:10:00,61.7,57.2,30.05,SSE,157,0.0,0.9,85,0.20,,,0.30,WUHU21623XXSP,2013-05-29 13:10:00,
2013-05-29 09:15:00,61.7,57.2,30.05,ESE,112,0.0,3.4,85,0.20,,,0.30,WUHU21623XXSP,2013-05-29 13:15:00,
2013-05-29 09:20:00,62.0,57.4,30.04,SSE,157,3.4,5.8,85,0.20,,,0.30,WUHU21623XXSP,2013-05-29 13:20:00,
2013-05-29 09:25:00,62.2,57.6,30.04,SSE,157,0.0,5.8,85,0.16,,,0.30,WUHU21623XXSP,2013-05-29 13:25:00,
2013-05-29 09:30:00,62.2,57.6,30.04,SSE,151,1.6,4.7,85,0.08,,,0.30,WUHU21623XXSP,2013-05-29 13:30:00,
2013-05-29 09:36:00,62.8,58.2,30.04,SSE,157,3.4,5.8,85,0.04,,,0.30,WUHU21623XXSP,2013-05-29 13:36:00,
2013-05-29 09:41:00,63.1,58.5,30.04,SSE,157,0.8,5.8,85,0.04,,,0.30,WUHU21623XXSP,2013-05-29 13:41:00,
2013-05-29 09:46:00,63.7,59.1,30.03,SSE,163,1.8,3.4,85,0.04,,,0.30,WUHU21623XXSP,2013-05-29 13:46:00,
2013-05-29 09:51:00,64.0,59.1,30.03,South,180,1.8,2.9,84,0.00,,,0.30,WUHU21623XXSP,2013-05-29 13:51:00,
2013-05-29 09:56:00,64.7,60.1,30.03,South,180,1.3,3.1,85,0.00,,,0.30,WUHU21623XXSP,2013-05-29 13:56:00,
2013-05-29 10:01:00,65.8,60.9,30.03,SSE,157,2.7,5.1,84,0.00,,,0.30,WUHU21623XXSP,2013-05-29 14:01:00,
2013-05-29 10:06:00,66.4,61.1,30.02,SSE,157,1.1,5.1,83,0.00,,,0.30,WUHU21623XXSP,2013-05-29 14:06:00,
2013-05-29 10:11:00,67.1,61.5,30.02,SE,145,2.1,3.4,82,0.00,,,0.30,WUHU21623XXSP,2013-05-29 14:11:00,
2013-05-29 10:16:00,67.6,62.0,30.02,SE,141,2.4,8.5,82,0.00,,,0.30,WUHU21623XXSP,2013-05-29 14:16:00,
2013-05-29 10:21:00,68.3,62.3,30.02,South,180,0.0,8.5,81,0.00,,,0.30,WUHU21623XXSP,2013-05-29 14:21:00,
2013-05-29 10:26:00,69.4,63.4,30.02,South,176,2.5,4.7,81,0.00,,,0.30,WUHU21623XXSP,2013-05-29 14:26:00,
2013-05-29 10:31:00,70.3,63.9,30.02,SSE,148,2.3,5.4,80,0.00,,,0.30,WUHU21623XXSP,2013-05-29 14:31:00,
2013-05-29 10:36:00,71.0,64.3,30.02,WNW,292,5.1,6.3,79,0.00,,,0.30,WUHU21623XXSP,2013-05-29 14:36:00,
2013-05-29 10:41:00,71.6,64.1,30.02,SE,135,4.5,7.6,77,0.00,,,0.30,WUHU21623XXSP,2013-05-29 14:41:00,
2013-05-29 10:46:00,71.9,64.1,30.02,WSW,247,2.9,7.6,76,0.00,,,0.30,WUHU21623XXSP,2013-05-29 14:46:00,
2013-05-29 10:51:00,72.5,63.9,30.02,SSE,167,3.2,6.9,74,0.00,,,0.30,WUHU21623XXSP,2013-05-29 14:51:00,
2013-05-29 10:56:00,72.8,64.2,30.03,SW,225,3.4,6.9,74,0.00,,,0.30,WUHU21623XXSP,2013-05-29 14:56:00,
2013-05-29 11:01:00,73.2,64.6,30.02,South,171,3.2,4.5,74,0.00,,,0.30,WUHU21623XXSP,2013-05-29 15:01:00,
2013-05-29 11:06:00,73.7,64.7,30.02,SSW,209,2.4,4.5,73,0.00,,,0.30,WUHU21623XXSP,2013-05-29 15:06:00,
2013-05-29 11:11:00,74.3,64.9,30.02,WSW,240,1.9,6.3,72,0.00,,,0.30,WUHU21623XXSP,2013-05-29 15:11:00,
2013-05-29 11:16:00,74.8,64.6,30.02,SSW,210,2.5,6.3,70,0.00,,,0.30,WUHU21623XXSP,2013-05-29 15:16:00,
2013-05-29 11:21:00,75.5,64.8,30.02,SW,214,3.3,6.5,69,0.00,,,0.30,WUHU21623XXSP,2013-05-29 15:21:00,
2013-05-29 11:26:00,75.7,65.0,30.02,SSW,212,2.0,6.5,69,0.00,,,0.30,WUHU21623XXSP,2013-05-29 15:26:00,
2013-05-29 11:31:00,76.1,65.4,30.02,SW,232,1.3,5.8,69,0.00,,,0.30,WUHU21623XXSP,2013-05-29 15:31:00,
2013-05-29 11:36:00,76.6,65.9,30.02,SW,225,3.1,5.8,69,0.00,,,0.30,WUHU21623XXSP,2013-05-29 15:36:00,
2013-05-29 11:41:00,77.0,65.4,30.01,WNW,289,2.4,5.8,67,0.00,,,0.30,WUHU21623XXSP,2013-05-29 15:41:00,
2013-05-29 11:46:00,77.3,65.3,30.01,SW,225,4.0,4.7,66,0.00,,,0.30,WUHU21623XXSP,2013-05-29 15:46:00,
2013-05-29 11:51:00,77.7,65.2,30.01,WSW,249,2.3,6.7,65,0.00,,,0.30,WUHU21623XXSP,2013-05-29 15:51:00,
2013-05-29 11:56:00,77.9,65.0,30.01,SW,218,4.2,6.7,64,0.00,,,0.30,WUHU21623XXSP,2013-05-29 15:56:00,
2013-05-29 12:01:00,78.2,65.3,30.01,WSW,247,5.8,7.2,64,0.00,,,0.30,WUHU21623XXSP,2013-05-29 16:01:00,
2013-05-29 12:06:00,78.4,65.4,30.02,SW,229,3.2,7.2,64,0.00,,,0.30,WUHU21623XXSP,2013-05-29 16:06:00,
2013-05-29 12:11:00,79.0,65.1,30.01,SW,220,2.9,11.0,62,0.00,,,0.30,WUHU21623XXSP,2013-05-29 16:11:00,
2013-05-29 12:16:00,79.3,65.4,30.01,South,180,3.6,11.0,62,0.00,,,0.30,WUHU21623XXSP,2013-05-29 16:16:00,
2013-05-29 12:21:00,79.7,65.3,30.01,WSW,247,5.2,7.2,61,0.00,,,0.30,WUHU21623XXSP,2013-05-29 16:21:00,
2013-05-29 12:26:00,79.9,66.0,30.02,SW,225,0.0,7.2,62,0.00,,,0.30,WUHU21623XXSP,2013-05-29 16:26:00,
2013-05-29 12:31:00,80.2,66.2,30.02,South,180,3.1,5.4,62,0.00,,,0.30,WUHU21623XXSP,2013-05-29 16:31:00,
2013-05-29 12:36:00,80.6,65.7,30.02,SW,231,2.2,5.4,60,0.00,,,0.30,WUHU21623XXSP,2013-05-29 16:36:00,
2013-05-29 12:41:00,80.6,65.2,30.02,NW,315,4.9,8.3,59,0.00,,,0.30,WUHU21623XXSP,2013-05-29 16:41:00,
2013-05-29 12:46:00,80.6,65.2,30.02,SW,228,3.8,11.6,59,0.00,,,0.30,WUHU21623XXSP,2013-05-29 16:46:00,
2013-05-29 12:51:00,80.6,65.2,30.02,WSW,245,2.7,11.6,59,0.00,,,0.30,WUHU21623XXSP,2013-05-29 16:51:00,
2013-05-29 12:56:00,80.8,64.9,30.02,South,180,3.4,10.7,58,0.00,,,0.30,WUHU21623XXSP,2013-05-29 16:56:00,
2013-05-29 13:01:00,80.8,64.4,30.02,SW,234,4.4,10.7,57,0.00,,,0.30,WUHU21623XXSP,2013-05-29 17:01:00,
2013-05-29 13:06:00,81.1,65.2,30.02,SW,235,1.7,8.7,58,0.00,,,0.30,WUHU21623XXSP,2013-05-29 17:06:00,
2013-05-29 13:11:00,81.5,64.5,30.02,SW,221,3.7,6.5,56,0.00,,,0.30,WUHU21623XXSP,2013-05-29 17:11:00,
2013-05-29 13:16:00,81.5,64.5,30.02,NW,315,0.0,6.5,56,0.00,,,0.30,WUHU21623XXSP,2013-05-29 17:16:00,
2013-05-29 13:21:00,81.5,64.5,30.02,SW,228,3.3,7.8,56,0.00,,,0.30,WUHU21623XXSP,2013-05-29 17:21:00,
2013-05-29 13:26:00,82.0,65.5,30.02,South,189,2.9,7.8,57,0.00,,,0.30,WUHU21623XXSP,2013-05-29 17:26:00,
2013-05-29 13:31:00,82.4,64.8,30.02,West,270,5.4,6.5,55,0.00,,,0.30,WUHU21623XXSP,2013-05-29 17:31:00,
2013-05-29 13:36:00,81.8,64.3,30.02,WSW,239,1.9,5.4,55,0.00,,,0.30,WUHU21623XXSP,2013-05-29 17:36:00,
2013-05-29 13:41:00,81.5,64.0,30.02,WSW,247,0.0,4.7,55,0.00,,,0.30,WUHU21623XXSP,2013-05-29 17:41:00,
2013-05-29 13:46:00,81.1,63.6,30.02,SW,217,3.2,7.2,55,0.00,,,0.30,WUHU21623XXSP,2013-05-29 17:46:00,
2013-05-29 13:51:00,81.3,63.8,30.02,SSE,154,2.6,7.2,55,0.00,,,0.30,WUHU21623XXSP,2013-05-29 17:51:00,
2013-05-29 13:56:00,81.7,64.2,30.03,SW,229,2.3,6.7,55,0.00,,,0.30,WUHU21623XXSP,2013-05-29 17:56:00,
2013-05-29 14:01:00,81.7,64.2,30.02,SW,233,2.2,6.7,55,0.00,,,0.30,WUHU21623XXSP,2013-05-29 18:01:00,
2013-05-29 14:06:00,82.0,65.0,30.02,SW,225,0.4,6.5,56,0.00,,,0.30,WUHU21623XXSP,2013-05-29 18:06:00,
2013-05-29 14:11:00,82.7,64.0,30.02,WSW,237,3.0,5.8,53,0.00,,,0.30,WUHU21623XXSP,2013-05-29 18:11:00,
2013-05-29 14:16:00,82.6,62.8,30.02,NNE,22,2.6,6.7,51,0.00,,,0.30,WUHU21623XXSP,2013-05-29 18:16:00,
2013-05-29 14:21:00,82.7,63.4,30.02,NNE,22,0.0,6.7,52,0.00,,,0.30,WUHU21623XXSP,2013-05-29 18:21:00,
2013-05-29 14:26:00,82.7,63.4,30.02,ESE,112,2.0,4.9,52,0.00,,,0.30,WUHU21623XXSP,2013-05-29 18:26:00,
2013-05-29 14:31:00,83.1,64.4,30.01,SW,225,2.5,4.9,53,0.00,,,0.30,WUHU21623XXSP,2013-05-29 18:31:00,
2013-05-29 14:36:00,83.6,63.7,30.01,SW,231,2.2,5.8,51,0.00,,,0.30,WUHU21623XXSP,2013-05-29 18:36:00,
2013-05-29 14:41:00,83.6,64.3,30.01,SSW,202,2.2,5.8,52,0.00,,,0.30,WUHU21623XXSP,2013-05-29 18:41:00,
2013-05-29 14:46:00,83.8,63.9,30.00,North,0,1.1,5.6,51,0.00,,,0.30,WUHU21623XXSP,2013-05-29 18:46:00,
2013-05-29 14:51:00,83.3,62.9,30.00,South,180,0.0,4.0,50,0.00,,,0.30,WUHU21623XXSP,2013-05-29 18:51:00,
2013-05-29 14:56:00,82.7,62.9,30.00,SSW,211,2.6,6.0,51,0.00,,,0.30,WUHU21623XXSP,2013-05-29 18:56:00,
2013-05-29 15:01:00,82.9,63.6,29.99,SW,225,3.4,6.3,52,0.00,,,0.30,WUHU21623XXSP,2013-05-29 19:01:00,
2013-05-29 15:06:00,83.3,63.4,29.99,SSE,163,1.0,6.3,51,0.00,,,0.30,WUHU21623XXSP,2013-05-29 19:06:00,
2013-05-29 15:11:00,83.3,62.9,29.99,SW,231,2.7,5.1,50,0.00,,,0.30,WUHU21623XXSP,2013-05-29 19:11:00,
2013-05-29 15:16:00,82.9,63.1,29.99,SSW,208,2.8,8.7,51,0.00,,,0.30,WUHU21623XXSP,2013-05-29 19:16:00,
2013-05-29 15:21:00,82.4,62.6,30.00,SW,226,2.8,8.7,51,0.00,,,0.30,WUHU21623XXSP,2013-05-29 19:21:00,
2013-05-29 15:26:00,82.2,61.8,30.00,South,180,3.8,7.8,50,0.00,,,0.30,WUHU21623XXSP,2013-05-29 19:26:00,
2013-05-29 15:31:00,81.8,62.0,30.00,SW,225,2.9,7.8,51,0.00,,,0.30,WUHU21623XXSP,2013-05-29 19:31:00,
2013-05-29 15:36:00,82.0,61.7,30.00,West,270,0.0,3.4,50,0.00,,,0.30,WUHU21623XXSP,2013-05-29 19:36:00,
2013-05-29 15:41:00,82.4,62.0,30.00,SW,234,4.0,6.7,50,0.00,,,0.30,WUHU21623XXSP,2013-05-29 19:41:00,
2013-05-29 15:46:00,82.7,61.7,30.00,SSW,213,2.7,6.7,49,0.00,,,0.30,WUHU21623XXSP,2013-05-29 19:46:00,
2013-05-29 15:51:00,82.7,62.3,30.00,NNE,22,0.0,6.0,50,0.00,,,0.30,WUHU21623XXSP,2013-05-29 19:51:00,
2013-05-29 15:56:00,82.9,62.5,30.00,WSW,246,0.6,6.0,50,0.00,,,0.30,WUHU21623XXSP,2013-05-29 19:56:00,
2013-05-29 16:01:00,82.7,62.3,30.00,SW,225,2.6,5.8,50,0.00,,,0.30,WUHU21623XXSP,2013-05-29 20:01:00,
2013-05-29 16:06:00,82.4,62.0,30.00,SW,225,0.0,3.4,50,0.00,,,0.30,WUHU21623XXSP,2013-05-29 20:06:00,
2013-05-29 16:11:00,82.0,62.2,30.00,SW,229,1.8,3.4,51,0.00,,,0.30,WUHU21623XXSP,2013-05-29 20:11:00,
2013-05-29 16:16:00,81.7,62.5,29.99,SW,225,0.0,2.9,52,0.00,,,0.30,WUHU21623XXSP,2013-05-29 20:16:00,
2013-05-29 16:21:00,81.5,61.8,29.98,WNW,292,0.0,0.0,51,0.00,,,0.30,WUHU21623XXSP,2013-05-29 20:21:00,
2013-05-29 16:26:00,81.5,61.8,29.97,SW,225,0.0,3.6,51,0.00,,,0.30,WUHU21623XXSP,2013-05-29 20:26:00,
2013-05-29 16:31:00,81.3,62.1,29.97,SW,225,1.3,3.6,52,0.00,,,0.30,WUHU21623XXSP,2013-05-29 20:31:00,
2013-05-29 16:36:00,80.6,62.1,29.97,SW,225,3.3,5.4,53,0.00,,,0.30,WUHU21623XXSP,2013-05-29 20:36:00,
2013-05-29 16:41:00,80.2,61.7,29.96,SW,219,3.8,7.8,53,0.00,,,0.30,WUHU21623XXSP,2013-05-29 20:41:00,
2013-05-29 16:46:00,80.2,62.2,29.98,SW,228,4.2,10.5,54,0.00,,,0.30,WUHU21623XXSP,2013-05-29 20:46:00,
2013-05-29 16:51:00,79.3,61.9,29.98,South,174,1.9,10.5,55,0.00,,,0.30,WUHU21623XXSP,2013-05-29 20:51:00,
2013-05-29 16:56:00,78.4,61.6,29.97,SSE,157,0.0,5.1,56,0.00,,,0.30,WUHU21623XXSP,2013-05-29 20:56:00,
2013-05-29 17:01:00,77.3,61.1,29.97,SSW,202,0.0,4.0,57,0.00,,,0.30,WUHU21623XXSP,2013-05-29 21:01:00,
2013-05-29 17:06:00,76.4,61.2,29.96,South,180,0.0,3.4,59,0.00,,,0.30,WUHU21623XXSP,2013-05-29 21:06:00,
2013-05-29 17:11:00,75.7,61.0,29.96,SW,225,0.0,1.3,60,0.00,,,0.30,WUHU21623XXSP,2013-05-29 21:11:00,
2013-05-29 17:16:00,75.0,60.4,29.99,SW,225,0.0,1.3,60,0.00,,,0.30,WUHU21623XXSP,2013-05-29 21:16:00,
2013-05-29 17:21:00,73.7,60.5,30.00,NNE,22,5.6,6.7,63,0.02,,,0.32,WUHU21623XXSP,2013-05-29 21:21:00,
2013-05-29 17:26:00,70.7,59.0,30.03,North,3,2.9,9.8,66,0.10,,,0.40,WUHU21623XXSP,2013-05-29 21:26:00,
2013-05-29 17:31:00,68.9,59.3,30.00,North,11,3.9,9.8,71,0.21,,,0.51,WUHU21623XXSP,2013-05-29 21:31:00,
2013-05-29 17:36:00,67.3,58.1,30.01,North,0,1.8,9.2,72,0.21,,,0.51,WUHU21623XXSP,2013-05-29 21:36:00,
2013-05-29 17:41:00,66.4,58.0,30.00,NNE,22,3.4,9.2,74,0.23,,,0.53,WUHU21623XXSP,2013-05-29 21:41:00,
2013-05-29 17:46:00,65.8,57.8,30.01,NE,45,4.0,4.9,75,0.23,,,0.53,WUHU21623XXSP,2013-05-29 21:46:00,
2013-05-29 17:51:00,66.0,58.3,30.01,ENE,67,0.7,4.9,76,0.23,,,0.53,WUHU21623XXSP,2013-05-29 21:51:00,
2013-05-29 17:56:00,67.1,59.8,30.01,North,11,1.6,3.1,77,0.23,,,0.53,WUHU21623XXSP,2013-05-29 21:56:00,
2013-05-29 18:01:00,68.3,60.9,30.01,NNE,22,0.0,2.0,77,0.23,,,0.53,WUHU21623XXSP,2013-05-29 22:01:00,
2013-05-29 18:06:00,68.9,61.1,30.01,NE,45,1.3,1.3,76,0.23,,,0.53,WUHU21623XXSP,2013-05-29 22:06:00,
2013-05-29 18:11:00,69.2,61.1,30.01,SSW,202,1.3,1.3,75,0.23,,,0.53,WUHU21623XXSP,2013-05-29 22:11:00,
2013-05-29 18:16:00,69.2,61.1,30.01,NW,315,0.0,1.3,75,0.23,,,0.53,WUHU21623XXSP,2013-05-29 22:16:00,
2013-05-29 18:21:00,68.9,60.8,30.01,NW,315,0.0,0.0,75,0.19,,,0.53,WUHU21623XXSP,2013-05-29 22:21:00,
2013-05-29 18:26:00,68.5,60.4,30.01,NW,315,0.0,0.0,75,0.13,,,0.53,WUHU21623XXSP,2013-05-29 22:26:00,
2013-05-29 18:31:00,68.3,60.2,30.01,NW,315,0.0,0.0,75,0.02,,,0.53,WUHU21623XXSP,2013-05-29 22:31:00,
2013-05-29 18:36:00,68.3,60.2,30.01,NW,315,0.0,0.0,75,0.02,,,0.53,WUHU21623XXSP,2013-05-29 22:36:00,
2013-05-29 18:41:00,68.2,60.1,30.01,NW,315,0.0,0.0,75,0.00,,,0.53,WUHU21623XXSP,2013-05-29 22:41:00,
2013-05-29 18:46:00,68.2,60.5,30.01,NW,315,0.0,0.0,76,0.00,,,0.53,WUHU21623XXSP,2013-05-29 22:46:00,
2013-05-29 18:51:00,68.0,60.3,30.01,NNW,337,0.0,0.0,76,0.00,,,0.53,WUHU21623XXSP,2013-05-29 22:51:00,
2013-05-29 18:56:00,68.0,60.3,30.01,NNW,337,0.0,0.0,76,0.00,,,0.53,WUHU21623XXSP,2013-05-29 22:56:00,
2013-05-29 19:01:00,68.0,60.6,30.01,NNW,337,0.0,0.0,77,0.00,,,0.53,WUHU21623XXSP,2013-05-29 23:01:00,
2013-05-29 19:06:00,67.8,60.4,30.01,NNW,337,0.0,0.0,77,0.00,,,0.53,WUHU21623XXSP,2013-05-29 23:06:00,
2013-05-29 19:11:00,67.8,60.4,30.02,NNW,337,0.0,0.0,77,0.00,,,0.53,WUHU21623XXSP,2013-05-29 23:11:00,
2013-05-29 19:16:00,67.6,60.2,30.01,NNW,337,0.0,0.0,77,0.00,,,0.53,WUHU21623XXSP,2013-05-29 23:16:00,
2013-05-29 19:21:00,67.6,60.2,30.01,NNW,337,0.0,0.0,77,0.00,,,0.53,WUHU21623XXSP,2013-05-29 23:21:00,
2013-05-29 19:26:00,68.0,60.6,30.01,NNW,337,0.0,0.0,77,0.00,,,0.53,WUHU21623XXSP,2013-05-29 23:26:00,
2013-05-29 19:31:00,68.0,61.0,30.02,NW,315,0.0,0.0,78,0.00,,,0.53,WUHU21623XXSP,2013-05-29 23:31:00,
2013-05-29 19:36:00,68.0,61.0,30.02,WNW,292,0.0,0.0,78,0.00,,,0.53,WUHU21623XXSP,2013-05-29 23:36:00,
2013-05-29 19:41:00,68.0,61.0,30.01,WNW,292,0.0,0.0,78,0.00,,,0.53,WUHU21623XXSP,2013-05-29 23:41:00,
2013-05-29 19:47:00,67.6,60.6,30.01,WNW,292,0.0,0.0,78,0.00,,,0.53,WUHU21623XXSP,2013-05-29 23:47:00,
2013-05-29 19:52:00,67.4,60.4,30.02,WNW,292,0.0,0.0,78,0.00,,,0.53,WUHU21623XXSP,2013-05-29 23:52:00,
2013-05-29 19:57:00,67.4,60.4,30.02,WNW,292,0.0,0.0,78,0.00,,,0.53,WUHU21623XXSP,2013-05-29 23:57:00,
2013-05-29 20:02:00,67.1,60.5,30.02,WNW,292,0.0,0.0,79,0.00,,,0.53,WUHU21623XXSP,2013-05-30 00:02:00,
2013-05-29 20:07:00,66.9,59.9,30.02,WNW,292,0.0,0.0,78,0.00,,,0.53,WUHU21623XXSP,2013-05-30 00:07:00,
2013-05-29 20:12:00,66.9,60.3,30.02,SW,225,0.0,0.0,79,0.00,,,0.53,WUHU21623XXSP,2013-05-30 00:12:00,
2013-05-29 20:17:00,66.5,59.9,30.02,SW,225,0.0,0.0,79,0.00,,,0.53,WUHU21623XXSP,2013-05-30 00:17:00,
2013-05-29 20:22:00,66.4,60.1,30.02,SW,225,0.0,0.0,80,0.00,,,0.53,WUHU21623XXSP,2013-05-30 00:22:00,
2013-05-29 20:27:00,66.2,59.9,30.02,SW,225,0.0,0.0,80,0.00,,,0.53,WUHU21623XXSP,2013-05-30 00:27:00,
2013-05-29 20:32:00,65.8,59.5,30.02,SW,225,0.0,0.0,80,0.00,,,0.53,WUHU21623XXSP,2013-05-30 00:32:00,
2013-05-29 20:38:00,65.6,59.3,30.02,SW,225,0.0,0.0,80,0.00,,,0.53,WUHU21623XXSP,2013-05-30 00:38:00,
2013-05-29 20:43:00,65.5,59.2,30.02,SSW,202,0.0,0.0,80,0.00,,,0.53,WUHU21623XXSP,2013-05-30 00:43:00,
2013-05-29 20:48:00,65.3,59.4,30.02,SSW,202,0.0,0.0,81,0.00,,,0.53,WUHU21623XXSP,2013-05-30 00:48:00,
2013-05-29 20:53:00,65.3,59.4,30.02,SSW,202,0.0,0.0,81,0.00,,,0.53,WUHU21623XXSP,2013-05-30 00:53:00,
2013-05-29 20:58:00,65.1,62.1,30.02,SSW,202,0.0,0.0,90,0.00,,,0.53,WUHU21623XXSP,2013-05-30 00:58:00,
2013-05-29 21:03:00,64.9,61.9,30.02,SSW,202,0.0,0.0,90,0.00,,,0.53,WUHU21623XXSP,2013-05-30 01:03:00,
2013-05-29 21:08:00,64.9,61.9,30.03,SSW,202,1.3,1.3,90,0.00,,,0.53,WUHU21623XXSP,2013-05-30 01:08:00,
2013-05-29 21:13:00,65.1,62.4,30.03,SW,225,0.0,2.7,91,0.00,,,0.53,WUHU21623XXSP,2013-05-30 01:13:00,
2013-05-29 21:18:00,65.3,62.6,30.03,SW,225,0.0,2.7,91,0.00,,,0.53,WUHU21623XXSP,2013-05-30 01:18:00,
2013-05-29 21:23:00,65.3,62.6,30.04,SW,225,0.0,0.0,91,0.00,,,0.53,WUHU21623XXSP,2013-05-30 01:23:00,
2013-05-29 21:28:00,65.3,62.6,30.04,ENE,67,0.0,0.0,91,0.00,,,0.53,WUHU21623XXSP,2013-05-30 01:28:00,
2013-05-29 21:33:00,65.3,62.6,30.04,SW,225,4.3,6.0,91,0.00,,,0.53,WUHU21623XXSP,2013-05-30 01:33:00,
2013-05-29 21:38:00,65.3,62.3,30.04,SW,225,0.0,6.0,90,0.00,,,0.53,WUHU21623XXSP,2013-05-30 01:38:00,
2013-05-29 21:43:00,65.3,62.3,30.04,SSE,157,0.0,0.0,90,0.00,,,0.53,WUHU21623XXSP,2013-05-30 01:43:00,
2013-05-29 21:48:00,65.3,62.3,30.05,SSE,157,0.0,0.0,90,0.00,,,0.53,WUHU21623XXSP,2013-05-30 01:48:00,
2013-05-29 21:53:00,65.3,62.3,30.05,SE,135,0.0,0.0,90,0.00,,,0.53,WUHU21623XXSP,2013-05-30 01:53:00,
2013-05-29 21:58:00,65.1,62.1,30.05,SE,135,0.0,0.0,90,0.00,,,0.53,WUHU21623XXSP,2013-05-30 01:58:00,
2013-05-29 22:03:00,65.3,62.3,30.05,SE,135,0.0,0.0,90,0.00,,,0.53,WUHU21623XXSP,2013-05-30 02:03:00,
2013-05-29 22:08:00,65.1,61.8,30.05,SE,135,0.0,0.0,89,0.00,,,0.53,WUHU21623XXSP,2013-05-30 02:08:00,
2013-05-29 22:13:00,64.9,61.6,30.05,SE,135,0.0,0.0,89,0.00,,,0.53,WUHU21623XXSP,2013-05-30 02:13:00,
2013-05-29 22:18:00,64.7,61.4,30.05,SE,135,0.0,0.0,89,0.00,,,0.53,WUHU21623XXSP,2013-05-30 02:18:00,
2013-05-29 22:23:00,64.7,61.4,30.05,ESE,112,0.0,0.0,89,0.00,,,0.53,WUHU21623XXSP,2013-05-30 02:23:00,
2013-05-29 22:28:00,64.7,61.4,30.05,SE,135,0.0,0.0,89,0.00,,,0.53,WUHU21623XXSP,2013-05-30 02:28:00,
2013-05-29 22:33:00,64.6,61.3,30.06,SE,135,0.0,0.0,89,0.00,,,0.53,WUHU21623XXSP,2013-05-30 02:33:00,
2013-05-29 22:38:00,64.4,61.1,30.06,SSW,202,0.0,0.0,89,0.00,,,0.53,WUHU21623XXSP,2013-05-30 02:38:00,
2013-05-29 22:43:00,64.4,61.1,30.07,South,180,0.0,0.0,89,0.00,,,0.53,WUHU21623XXSP,2013-05-30 02:43:00,
2013-05-29 22:48:00,64.2,60.9,30.06,South,180,0.0,0.0,89,0.00,,,0.53,WUHU21623XXSP,2013-05-30 02:48:00,
2013-05-29 22:53:00,64.4,61.1,30.07,South,180,0.0,0.0,89,0.00,,,0.53,WUHU21623XXSP,2013-05-30 02:53:00,
2013-05-29 22:58:00,64.2,60.9,30.07,South,180,0.0,0.0,89,0.00,,,0.53,WUHU21623XXSP,2013-05-30 02:58:00,
2013-05-29 23:03:00,64.0,60.7,30.07,South,180,0.0,0.0,89,0.00,,,0.53,WUHU21623XXSP,2013-05-30 03:03:00,
2013-05-29 23:08:00,63.7,60.4,30.07,South,180,0.0,0.0,89,0.00,,,0.53,WUHU21623XXSP,2013-05-30 03:08:00,
2013-05-29 23:13:00,63.1,59.8,30.07,South,180,0.0,0.0,89,0.00,,,0.53,WUHU21623XXSP,2013-05-30 03:13:00,
2013-05-29 23:18:00,62.8,59.5,30.08,South,180,0.0,0.0,89,0.00,,,0.53,WUHU21623XXSP,2013-05-30 03:18:00,
2013-05-29 23:23:00,62.4,59.1,30.08,South,180,0.0,0.0,89,0.00,,,0.53,WUHU21623XXSP,2013-05-30 03:23:00,
2013-05-29 23:28:00,62.2,58.9,30.08,South,180,0.0,0.0,89,0.00,,,0.53,WUHU21623XXSP,2013-05-30 03:28:00,
2013-05-29 23:33:00,62.0,59.0,30.08,South,180,0.0,0.0,90,0.00,,,0.53,WUHU21623XXSP,2013-05-30 03:33:00,
2013-05-29 23:38:00,61.9,59.2,30.08,South,180,0.0,0.0,91,0.00,,,0.53,WUHU21623XXSP,2013-05-30 03:38:00,
2013-05-29 23:43:00,61.9,59.2,30.08,ENE,67,0.0,0.0,91,0.00,,,0.53,WUHU21623XXSP,2013-05-30 03:43:00,
2013-05-29 23:48:00,62.0,59.3,30.08,ENE,67,0.0,0.0,91,0.00,,,0.53,WUHU21623XXSP,2013-05-30 03:48:00,
2013-05-29 23:53:00,62.0,59.3,30.08,ENE,67,0.0,0.0,91,0.00,,,0.53,WUHU21623XXSP,2013-05-30 03:53:00,
2013-05-29 23:58:00,62.0,59.6,30.08,ENE,67,0.0,0.0,92,0.00,,,0.53,WUHU21623XXSP,2013-05-30 03:58:00,